This is the latest recevied weather packets stored in our database for station/object R2AKT-13. If no packets are shown the sender has not sent any weather packets the latest 10 day(s).
| Time | Temp. | Humidity | Pressure | Rain* | Wind** | Luminosity | Snow |
|---|---|---|---|---|---|---|---|
| 1777625964 | 7.22° C | 47% | 996.4 hPa | - | 0.45 m/s, 197° | - | - |
| 1777625399 | 6.67° C | 49% | 996.4 hPa | - | 0.45 m/s, 187° | - | - |
| 1777624828 | 6.11° C | 50% | 996.5 hPa | - | 0.45 m/s, 257° | - | - |
| 1777624239 | 6.11° C | 51% | 996.5 hPa | - | 0.45 m/s, 192° | - | - |
| 1777623639 | 5.56° C | 51% | 996.5 hPa | - | 0.45 m/s, 259° | - | - |
| 1777623148 | 6.11° C | 51% | 996.5 hPa | - | 0.45 m/s, 223° | - | - |
| 1777622548 | 6.11° C | 50% | 996.5 hPa | - | 0.45 m/s, 178° | - | - |
| 1777621984 | 5.56° C | 52% | 996.4 hPa | - | 0.45 m/s, 216° | - | - |
| 1777621488 | 6.11° C | 51% | 996.5 hPa | - | 0.89 m/s, 239° | - | - |
| 1777620999 | 5.56° C | 52% | 996.4 hPa | - | 0.45 m/s, 142° | - | - |
| 1777620408 | 5.56° C | 51% | 996.4 hPa | - | 0.45 m/s, 187° | - | - |
| 1777619819 | 5.56° C | 50% | 996.4 hPa | - | 0.45 m/s, 130° | - | - |
| 1777619324 | 5.56° C | 50% | 996.4 hPa | - | 0.45 m/s, 153° | - | - |
| 1777618839 | 5° C | 50% | 996.3 hPa | - | 0.89 m/s, 116° | - | - |
| 1777618344 | 5.56° C | 49% | 996.4 hPa | - | 0 m/s | - | - |
| 1777617859 | 5.56° C | 50% | 996.3 hPa | - | 0.45 m/s, 104° | - | - |
| 1777617308 | 4.44° C | 52% | 996.3 hPa | - | 0.45 m/s, 263° | - | - |
| 1777616794 | 4.44° C | 52% | 996.4 hPa | - | 0.45 m/s, 221° | - | - |
| 1777616284 | 4.44° C | 53% | 996.3 hPa | - | 0.45 m/s, 247° | - | - |
| 1777615694 | 5° C | 52% | 996.2 hPa | - | 0.45 m/s, 200° | - | - |
| 1777615158 | 4.44° C | 52% | 996.2 hPa | - | 1.34 m/s, 185° | - | - |
| 1777614644 | 4.44° C | 53% | 996.2 hPa | - | 0.45 m/s, 259° | - | - |
| 1777614108 | 3.89° C | 56% | 996.2 hPa | - | 0.45 m/s, 189° | - | - |
| 1777613508 | 3.89° C | 56% | 996.1 hPa | - | 1.34 m/s, 181° | - | - |
| 1777612944 | 3.89° C | 58% | 996.2 hPa | - | 0.89 m/s, 191° | - | - |
* Rain since midnight (hover to see other rain measurements)
** Current wind speed in m/s (hover to see current wind gust speed)